Location: Kergonan
(48.2337°N, 4.5518°W)
Time: 14:33:49
(UTC+00:00)

Helios 1A Rocket - Pass Details

Date: 18 January 2020
Orbit: 565 x 586 km, 98.3° (Epoch: 21 February)

Event Time Altitude Azimuth Distance (km) Brightness Sun altitude
Rises 05:52:56 0° 19° (NNE) 2,801 6.6 -21.0°
Reaches altitude 10° 05:55:09 10° 26° (NNE) 1,901 5.8 -20.7°
Maximum altitude 05:59:07 46° 100° (E) 786 4.0 -20.0°
Drops below altitude 10° 06:03:05 10° 174° (S) 1,896 5.7 -19.4°
Sets 06:05:18 0° 181° (S) 2,794 6.5 -19.0°
